[[{"header":{"parameterUnit":"m.s-1","parameterCategory":1,"la1":30.2991,"la2":30.254,"lo1":-89.0895,"lo2":-89.0444,"dy":0.0017,"dx":0.0017,"nx":28,"ny":28,"refTime":"2023-08-19T03:00:00:Z","depth":0,"parameterNumber":2,"parameterNumberName":"U-component_of_WINDS"},"data":[0,0,0,0,0,0,0,0,0,0,0,0,0,0,0,0,0,0,0,0,0,0,0,0,0,0,0,0,0,0,0,0,0,0,0,0,0,0,0,0,0,0,0,0,0,0,0,0,0,0,0,0,0,0,0,0,0,0,-4.228,-4.228,0,-4.231,-4.231,-4.2311,-4.2217,-4.2214,-4.2211,-4.2209,-4.2236,-4.2239,-4.2242,0,0,0,0,0,0,0,0,0,0,0,0,0,-4.2137,-4.214,-4.228,-4.228,-4.228,-4.231,-4.231,-4.2311,-4.2218,-4.2214,-4.2211,-4.2208,-4.2234,-4.2238,-4.2242,0,0,0,0,0,0,0,0,0,0,0,0,0,-4.2187,-4.2142,-4.228,-4.2238,-4.2234,-4.231,-4.231,-4.2311,-4.2218,-4.2214,-4.221,-4.2206,-4.2233,-4.2238,-4.2243,-4.2359,0,0,-4.2258,-4.2261,0,0,0,0,0,0,0,0,-4.2184,-4.2192,-4.2243,-4.2241,-4.2237,-4.2256,-4.227,-4.2327,-4.2219,-4.2224,-4.2209,-4.2204,-4.2245,-4.2249,-4.2264,-4.236,-4.2362,-4.2259,-4.2262,-4.2264,-4.2265,0,0,0,0,0,0,0,-4.2181,-4.219,-4.2291,-4.2244,-4.224,-4.2216,-4.2218,-4.228,-4.2258,-4.2224,-4.2217,-4.2222,-4.2243,-4.2259,-4.2264,-4.2362,-4.2259,-4.2263,-4.2266,-4.2268,-4.2555,-4.256,0,0,0,0,0,0,-4.2183,-4.2188,-4.229,-4.2292,-4.22,-4.2222,-4.2225,-4.2254,-4.2257,-4.2254,-4.2226,-4.2217,-4.2253,-4.2258,-4.2265,-4.24,-4.2264,-4.2269,-4.2272,-4.2551,-4.2556,-4.2561,0,0,0,0,0,0,-4.2181,-4.2193,-4.2289,-4.2238,-4.2249,-4.2229,-4.2263,-4.2257,-4.2273,-4.2259,-4.2254,-4.2247,-4.225,-4.2257,-4.2337,-4.24,-4.2271,-4.2276,-4.2545,-4.2552,-4.2559,-4.2673,0,0,0,0,0,0,-4.2177,-4.2193,-4.2238,-4.224,-4.2252,-4.2362,-4.2267,-4.226,-4.2283,-4.2272,-4.2278,-4.2274,-4.2247,-4.233,-4.2342,-4.2404,-4.2279,-4.2539,-4.2548,-4.2556,-4.2663,-4.2683,-4.27,0,0,0,0,0,-4.2172,-4.2268,-4.224,-4.2253,-4.2308,-4.2366,-4.2373,-4.234,-4.2288,-4.2332,-4.2323,-4.2274,-4.2392,-4.2339,-4.2351,-4.2416,-4.2535,-4.2546,-4.2556,-4.2655,-4.2679,-4.2699,0,0,0,0,0,0,-4.2271,-4.2267,-4.2237,-4.2336,-4.2353,-4.235,-4.2405,-4.2367,-4.2397,-4.2386,-4.2343,-4.2345,-4.2432,-4.2432,-4.2373,-4.2529,-4.2454,-4.2468,-4.2525,-4.2548,-4.2566,-4.2563,-4.2284,0,0,0,0,0,-4.2305,-4.2354,-4.2347,-4.2436,-4.2446,-4.2425,-4.2449,-4.2423,-4.2437,-4.2443,-4.2439,-4.2454,-4.2494,-4.2521,-4.2558,-4.2664,-4.2663,-4.2715,-4.2733,-4.2748,-4.2759,-4.2815,-4.2838,-4.2595,-4.2595,-4.2595,0,0,-4.2374,-4.2378,-4.2411,-4.2456,-4.2465,-4.2516,-4.243,-4.2487,-4.2524,-4.2451,-4.2525,-4.2524,-4.2538,-4.2631,-4.2672,-4.2634,-4.2827,-4.2761,-4.2773,-4.2776,-4.2828,-4.2851,-4.2872,-4.2602,-4.2601,-4.26,0,0,-4.2526,-4.2535,-4.2609,-4.2621,-4.2637,-4.2623,-4.2641,-4.2645,-4.2642,-4.2717,-4.2663,-4.2706,-4.2776,-4.2788,-4.2803,-4.2962,-4.2917,-4.2975,-4.3068,-4.3123,-4.3142,-4.3159,-4.3214,-4.3235,-4.2987,-4.2987,-4.2987,0,-4.2609,-4.2684,-4.2651,-4.2713,-4.2733,-4.2672,-4.2746,-4.2759,-4.2786,-4.2801,-4.2759,-4.2846,-4.2851,-4.2946,-4.2985,-4.3,-4.3018,-4.2973,-4.3143,-4.3159,-4.3174,-4.3226,-4.3247,-4.2994,-4.2993,-4.2992,-4.2992,0,-4.2786,-4.2839,-4.2897,-4.2927,-4.2954,-4.3022,-4.2998,-4.3029,-4.3002,-4.2992,-4.3069,-4.3073,-4.3109,-4.313,-4.3103,-4.3221,-4.3197,-4.315,-4.3073,-4.3205,-4.3253,-4.3273,-4.3003,-4.3001,-4.2999,-4.2997,0,0,-4.2998,-4.301,-4.3032,-4.3044,-4.3059,-4.3099,-4.3164,-4.32,-4.3228,-4.3249,-4.3301,-4.3363,-4.332,-4.3337,-4.3311,-4.336,-4.3484,-4.3306,-4.3306,-4.3338,-4.3614,-4.3648,-4.3672,-4.3456,-4.346,-4.3463,-4.3612,0,-4.3146,-4.3259,-4.3232,-4.3342,-4.3391,-4.3334,-4.339,-4.3405,-4.3398,-4.3437,-4.3428,-4.3472,-4.3412,-4.3422,-4.3468,-4.346,-4.3539,-4.3449,-4.3503,-4.3505,-4.3499,-4.3698,-4.3734,-4.3875,-4.3631,-4.3634,-4.3637,0,-4.3334,-4.3364,-4.348,-4.3488,-4.3507,-4.3558,-4.359,-4.3629,-4.3644,-4.3635,-4.3656,-4.3621,-4.3684,-4.3609,-4.3695,-4.3634,-4.3655,-4.3655,-4.3659,-4.3661,-4.3577,-4.3703,-4.3919,-4.394,-4.3666,-4.3664,-4.3662,0,-4.3475,-4.3545,-4.3624,-4.3637,-4.3647,-4.3685,-4.3691,-4.3702,-4.3726,-4.3754,-4.3769,-4.3803,-4.3822,-4.3849,-4.3824,-4.3772,-4.3913,-4.3836,-4.3906,-4.3907,-4.3936,-4.3934,-4.4156,-4.3953,-4.3953,-4.3953,-4.3952,0,-4.3643,-4.3716,-4.3688,-4.3736,-4.3815,-4.3784,-4.3863,-4.3863,-4.3874,-4.3919,-4.3873,-4.3917,-4.3882,-4.3923,-4.3904,-4.3977,-4.3986,-4.3979,-4.3973,-4.3982,-4.3983,-4.3994,-4.3983,-4.3958,-4.3957,-4.3956,-4.3955,0,-4.3813,-4.3798,-4.3879,-4.3884,-4.3887,-4.3945,-4.3948,-4.3992,-4.3983,-4.4042,-4.4054,-4.4038,-4.4084,-4.4062,-4.4109,-4.4096,-4.419,-4.4172,-4.4186,-4.418,-4.4251,-4.4244,-4.4486,-4.4515,-4.4295,-4.4297,-4.4299,0,-4.392,-4.3975,-4.3987,-4.4015,-4.4025,-4.4071,-4.4096,-4.4067,-4.4095,-4.4117,-4.4159,-4.4201,-4.4232,-4.4308,-4.43,-4.4336,-4.4317,-4.4399,-4.4321,-4.4329,-4.4316,-4.4312,-4.4317,-4.4414,-4.4416,-4.4419,-4.442,0,-4.4111,-4.4101,-4.414,-4.4177,-4.4208,-4.4235,-4.4258,-4.4284,-4.4256,-4.4289,-4.4336,-4.4362,-4.4411,-4.4453,-4.4484,-4.4489,-4.445,-4.4445,-4.4463,-4.4472,-4.4477,-4.4474,-4.4226,-4.4439,-4.4437,-4.4436,-4.4435,-4.4434,-4.4252,-4.4298,-4.4314,-4.4359,-4.4373,-4.4396,-4.4438,-4.4435,-4.4474,-4.4512,-4.4493,-4.4548,-4.4562,-4.4601,-4.4611,-4.4652,-4.4619,-4.4646,-4.4652,-4.4658,-4.4667,-4.4473,-4.4658,-4.4658,-4.4657,-4.4657,-4.4656,0,-4.4439,-4.4447,-4.4489,-4.4523,-4.4559,-4.4522,-4.4545,-4.4576,-4.4626,-4.4643,-4.4676,-4.473,-4.4771,-4.4767,-4.4805,-4.4838,-4.4821,-4.4849,-4.4845,-4.4847,-4.4695,-4.4675,-4.4862,-4.4862,-4.4862,-4.4862,-4.4862,-4.4862,-4.4541,-4.4617,-4.4609,-4.4692,-4.4699,-4.4754,-4.477,-4.4791,-4.4804,-4.4867,-4.4902,-4.49,-4.4909,-4.4946,-4.4982,-4.498,-4.4995,-4.5029,-4.502,-4.4878,-4.4857,-4.4838,-4.4819,-4.5033,-4.5033,-4.5168,-4.5169,-4.517]},{"header":{"parameterUnit":"m.s-1","parameterCategory":1,"la1":30.2991,"la2":30.254,"lo1":-89.0895,"lo2":-89.0444,"dy":0.0017,"dx":0.0017,"nx":28,"ny":28,"refTime":"2023-08-19T03:00:00:Z","depth":0,"parameterNumber":3,"parameterNumberName":"V-component_of_WINDS"},"data":[0,0,0,0,0,0,0,0,0,0,0,0,0,0,0,0,0,0,0,0,0,0,0,0,0,0,0,0,0,0,0,0,0,0,0,0,0,0,0,0,0,0,0,0,0,0,0,0,0,0,0,0,0,0,0,0,0,0,2.882,2.8821,0,2.8904,2.8905,2.8905,2.8935,2.8935,2.8934,2.8934,2.9012,2.9014,2.9017,0,0,0,0,0,0,0,0,0,0,0,0,0,2.868,2.8682,2.882,2.8821,2.8822,2.8903,2.8905,2.8906,2.8935,2.8935,2.8934,2.8934,2.9011,2.9014,2.9017,0,0,0,0,0,0,0,0,0,0,0,0,0,2.8749,2.8683,2.882,2.8847,2.885,2.8903,2.8905,2.8906,2.8935,2.8935,2.8934,2.8934,2.901,2.9014,2.9017,2.9047,0,0,2.9028,2.903,0,0,0,0,0,0,0,0,2.8745,2.8754,2.8842,2.8845,2.8849,2.8909,2.8884,2.8953,2.8935,2.8903,2.8934,2.8934,2.8978,2.8984,2.9,2.9051,2.9054,2.9028,2.903,2.9032,2.9033,0,0,0,0,0,0,0,2.874,2.8751,2.8853,2.8843,2.8847,2.8853,2.8862,2.8897,2.8941,2.8905,2.8908,2.8918,2.8979,2.8997,2.9002,2.9056,2.9028,2.9031,2.9034,2.9035,2.9135,2.9136,0,0,0,0,0,0,2.8732,2.8747,2.885,2.8855,2.8795,2.8855,2.8866,2.889,2.8941,2.8948,2.8918,2.8919,2.8991,2.8998,2.9005,2.9044,2.9032,2.9035,2.9037,2.9135,2.9135,2.9136,0,0,0,0,0,0,2.8729,2.8741,2.8847,2.8802,2.8816,2.8858,2.8885,2.8892,2.8909,2.8951,2.8958,2.8928,2.8991,2.9,2.9037,2.9047,2.9037,2.904,2.9134,2.9135,2.9136,2.9121,0,0,0,0,0,0,2.8725,2.874,2.8753,2.8802,2.8818,2.888,2.8885,2.8894,2.8916,2.8918,2.8962,2.8969,2.8991,2.9032,2.9041,2.9051,2.9043,2.9133,2.9134,2.9135,2.9121,2.9121,2.9122,0,0,0,0,0,2.872,2.8744,2.8754,2.8766,2.8836,2.888,2.8889,2.8917,2.8917,2.8929,2.8956,2.8967,2.9044,2.9035,2.9046,2.9057,2.9133,2.9134,2.9135,2.9121,2.9121,2.9122,0,0,0,0,0,0,2.8692,2.8751,2.8762,2.8804,2.8837,2.8885,2.8902,2.8916,2.8948,2.8948,2.8979,2.8989,2.9023,2.9044,2.9033,2.9089,2.9089,2.9092,2.9075,2.9075,2.9076,2.907,2.9046,0,0,0,0,0,2.8692,2.8725,2.8773,2.8805,2.8822,2.8859,2.8879,2.8898,2.8933,2.8946,2.8975,2.9007,2.9038,2.9058,2.9089,2.9124,2.9134,2.9137,2.9138,2.9138,2.914,2.916,2.9162,2.914,2.914,2.914,0,0,2.8689,2.8726,2.8744,2.8801,2.8829,2.886,2.8871,2.8903,2.8927,2.895,2.8988,2.9011,2.9047,2.9084,2.9101,2.9102,2.9149,2.914,2.9139,2.9142,2.9162,2.9164,2.9166,2.9141,2.9141,2.9141,0,0,2.8702,2.8733,2.8763,2.8792,2.8836,2.886,2.8868,2.8914,2.8931,2.897,2.8988,2.9015,2.9068,2.9094,2.9114,2.9137,2.9148,2.9146,2.9148,2.9167,2.9169,2.9171,2.9178,2.9181,2.9149,2.9149,2.9148,0,2.8693,2.8744,2.8776,2.8809,2.8833,2.8859,2.8888,2.8913,2.8963,2.8978,2.8979,2.9048,2.9074,2.9117,2.9123,2.9138,2.9146,2.9141,2.9167,2.9169,2.9171,2.9178,2.9181,2.9148,2.9148,2.9148,2.9148,0,2.8731,2.8766,2.8785,2.8836,2.8862,2.8892,2.8927,2.8949,2.8965,2.899,2.9028,2.9061,2.91,2.9111,2.9126,2.9156,2.9155,2.9161,2.9161,2.9172,2.9179,2.9183,2.9147,2.9147,2.9148,2.9148,0,0,2.8728,2.8798,2.8804,2.8828,2.8878,2.8904,2.8935,2.8976,2.8994,2.9027,2.9053,2.9099,2.9105,2.9127,2.9146,2.9162,2.9178,2.9166,2.9167,2.9167,2.9213,2.9208,2.9211,2.9187,2.9187,2.9188,2.9209,0,2.8747,2.8807,2.8837,2.8883,2.8916,2.8941,2.8968,2.9,2.9024,2.9053,2.9077,2.9109,2.9115,2.9129,2.9147,2.9173,2.9188,2.9172,2.9209,2.921,2.9199,2.9215,2.921,2.9229,2.9213,2.9213,2.9214,0,2.8777,2.8814,2.8864,2.8911,2.8926,2.895,2.8989,2.9017,2.9054,2.907,2.9096,2.9114,2.9146,2.9145,2.9189,2.9177,2.9194,2.9209,2.9211,2.9214,2.9212,2.9219,2.9235,2.9238,2.9219,2.9218,2.9218,0,2.8769,2.8831,2.8869,2.8889,2.8944,2.8961,2.8984,2.9021,2.9044,2.9077,2.9092,2.9127,2.9147,2.9173,2.92,2.9197,2.9241,2.9242,2.9253,2.9253,2.9261,2.926,2.928,2.9273,2.9273,2.9273,2.9273,0,2.8787,2.8817,2.8867,2.889,2.8924,2.8957,2.8988,2.9013,2.9046,2.9073,2.9096,2.912,2.9155,2.9183,2.9204,2.9237,2.9245,2.9257,2.9262,2.9255,2.9254,2.9266,2.9265,2.9273,2.9273,2.9273,2.9273,0,2.8784,2.8819,2.8862,2.8913,2.8926,2.8948,2.899,2.9013,2.9038,2.9072,2.9082,2.912,2.9155,2.9184,2.9229,2.9243,2.9276,2.9283,2.9265,2.9268,2.9277,2.9276,2.9306,2.9311,2.93,2.9301,2.9301,0,2.8793,2.8817,2.8871,2.8892,2.8916,2.8949,2.8973,2.9006,2.903,2.9074,2.9091,2.9128,2.9159,2.9212,2.9243,2.9277,2.9284,2.9292,2.9289,2.9281,2.9283,2.9282,2.9284,2.9292,2.9292,2.9292,2.9292,0,2.8805,2.8822,2.8856,2.8898,2.8926,2.8959,2.8992,2.9008,2.9047,2.9071,2.9109,2.9133,2.918,2.9215,2.9253,2.9275,2.9289,2.9293,2.9297,2.929,2.9278,2.9284,2.9265,2.9291,2.9291,2.9291,2.9292,2.9292,2.8808,2.8831,2.8873,2.891,2.894,2.8971,2.8995,2.9024,2.9056,2.9099,2.9116,2.9153,2.9189,2.9242,2.9264,2.9292,2.9294,2.93,2.9302,2.9303,2.9302,2.9274,2.9299,2.9299,2.9299,2.9299,2.9299,0,2.8821,2.885,2.8885,2.8932,2.8962,2.8976,2.9013,2.9036,2.907,2.9103,2.9135,2.9177,2.9211,2.9245,2.9281,2.9297,2.9305,2.9306,2.9304,2.9309,2.9298,2.929,2.9299,2.9299,2.9299,2.9299,2.9299,2.9299,2.8832,2.8871,2.8892,2.8945,2.8973,2.9012,2.9033,2.9061,2.9088,2.9135,2.9165,2.9188,2.9221,2.926,2.9292,2.93,2.9312,2.9311,2.9322,2.931,2.931,2.9309,2.9303,2.9314,2.9314,2.9331,2.9331,2.9331]}]]